When you browse on this site, cookies collect data to enhance your experience and personalize the content and advertising you see.
Visit our Privacy Policy to learn more. By continuing to use the site, you agree to this use of cookies and data.
  • In Schweiz
  • Länderverzeichnis
  • Für 7 Tage
  • Wassertemperatur
  • Satellitenkarten
  • Wetterkarte
  • Widgets
  • user-avatar
    Anmelden

    Stündliche Wetter Goiania

    Heute, 24 Januar, Donnerstag

    Zeit Temperatur Niederschläge Wind Luftdruck Luftfeuchtigkeit
    00:00 +25°C° 1 mm 2 m/S 699 mmHg 86%
    01:00 +24°C° 0 mm 2 m/S 699 mmHg 86%
    02:00 +24°C° 0 mm 2 m/S 698 mmHg 86%
    03:00 +24°C° 0 mm 2 m/S 698 mmHg 87%
    04:00 +24°C° 0 mm 2 m/S 698 mmHg 87%
    05:00 +23°C° 0 mm 2 m/S 698 mmHg 87%
    06:00 +23°C° 0 mm 2 m/S 698 mmHg 86%
    07:00 +25°C° 0 mm 3 m/S 698 mmHg 79%
    08:00 +27°C° 0 mm 3 m/S 699 mmHg 72%
    09:00 +29°C° 0 mm 4 m/S 700 mmHg 66%
    10:00 +30°C° 0 mm 3 m/S 700 mmHg 60%
    11:00 +31°C° 0 mm 3 m/S 700 mmHg 54%
    12:00 +34°C° 0 mm 3 m/S 700 mmHg 49%
    13:00 +32°C° 0 mm 2 m/S 699 mmHg 51%
    14:00 +32°C° 0 mm 2 m/S 699 mmHg 54%
    15:00 +31°C° 0 mm 1 m/S 698 mmHg 57%
    16:00 +31°C° 0 mm 1 m/S 698 mmHg 58%
    17:00 +30°C° 0 mm 1 m/S 698 mmHg 60%
    18:00 +30°C° 0 mm 1 m/S 698 mmHg 62%
    19:00 +29°C° 0 mm 1 m/S 698 mmHg 65%
    20:00 +27°C° 0 mm 1 m/S 698 mmHg 68%
    21:00 +26°C° 0 mm 1 m/S 698 mmHg 72%
    22:00 +25°C° 0 mm 1 m/S 698 mmHg 74%
    23:00 +25°C° 0 mm 2 m/S 698 mmHg 76%

    Morgen, 25 Januar, Freitag

    Zeit Temperatur Niederschläge Wind Luftdruck Luftfeuchtigkeit
    00:00 +24°C° 0 mm 2 m/S 699 mmHg 78%
    01:00 +24°C° 0 mm 2 m/S 698 mmHg 78%
    02:00 +24°C° 0 mm 2 m/S 698 mmHg 78%
    03:00 +24°C° 0 mm 2 m/S 697 mmHg 79%
    04:00 +23°C° 0 mm 2 m/S 697 mmHg 78%
    05:00 +23°C° 0 mm 2 m/S 698 mmHg 77%
    06:00 +23°C° 0 mm 2 m/S 698 mmHg 77%
    07:00 +24°C° 0 mm 3 m/S 698 mmHg 71%
    08:00 +26°C° 0 mm 3 m/S 699 mmHg 66%
    09:00 +28°C° 0 mm 4 m/S 700 mmHg 61%
    10:00 +30°C° 0 mm 4 m/S 700 mmHg 56%
    11:00 +31°C° 0 mm 3 m/S 700 mmHg 52%
    12:00 +34°C° 0 mm 3 m/S 700 mmHg 47%
    13:00 +34°C° 0 mm 3 m/S 699 mmHg 45%
    14:00 +35°C° 0 mm 2 m/S 699 mmHg 43%
    15:00 +35°C° 0 mm 2 m/S 698 mmHg 41%
    16:00 +32°C° 0.7 mm 1 m/S 698 mmHg 51%
    17:00 +29°C° 0.7 mm 1 m/S 697 mmHg 61%
    18:00 +27°C° 0.7 mm 1 m/S 697 mmHg 71%
    19:00 +26°C° 1.1 mm 1 m/S 697 mmHg 75%
    20:00 +25°C° 1.1 mm 2 m/S 697 mmHg 78%
    21:00 +24°C° 1.1 mm 2 m/S 698 mmHg 82%
    22:00 +24°C° 0.3 mm 2 m/S 698 mmHg 82%
    23:00 +24°C° 0.3 mm 1 m/S 698 mmHg 82%

    übermorgen, 26 Januar, Samstag

    Zeit Temperatur Niederschläge Wind Luftdruck Luftfeuchtigkeit
    00:00 +24°C° 0.3 mm 1 m/S 698 mmHg 82%
    01:00 +24°C° 0.1 mm 1 m/S 698 mmHg 82%
    02:00 +24°C° 0.1 mm 1 m/S 698 mmHg 82%
    03:00 +23°C° 0.1 mm 2 m/S 697 mmHg 83%
    04:00 +23°C° 0.1 mm 2 m/S 697 mmHg 84%
    05:00 +23°C° 0.1 mm 2 m/S 697 mmHg 85%
    06:00 +23°C° 0.1 mm 2 m/S 698 mmHg 86%
    07:00 +24°C° 0.4 mm 3 m/S 698 mmHg 83%
    08:00 +25°C° 0.4 mm 3 m/S 699 mmHg 80%
    09:00 +26°C° 0.4 mm 4 m/S 699 mmHg 77%
    10:00 +27°C° 0.6 mm 4 m/S 699 mmHg 71%
    11:00 +29°C° 0.6 mm 4 m/S 700 mmHg 64%
    12:00 +30°C° 0.6 mm 5 m/S 700 mmHg 57%
    13:00 +30°C° 1.4 mm 4 m/S 699 mmHg 61%
    14:00 +29°C° 1.4 mm 3 m/S 698 mmHg 66%
    15:00 +28°C° 1.4 mm 2 m/S 698 mmHg 71%
    16:00 +27°C° 3.4 mm 2 m/S 698 mmHg 76%
    17:00 +26°C° 3.4 mm 1 m/S 698 mmHg 81%
    18:00 +25°C° 3.4 mm 1 m/S 698 mmHg 85%
    19:00 +24°C° 2.2 mm 1 m/S 698 mmHg 86%
    20:00 +23°C° 2.2 mm 2 m/S 699 mmHg 87%
    21:00 +23°C° 2.2 mm 2 m/S 699 mmHg 88%
    22:00 +22°C° 0.4 mm 3 m/S 699 mmHg 88%
    23:00 +21°C° 0.4 mm 4 m/S 699 mmHg 89%

    27 Januar, Sonntag

    Zeit Temperatur Niederschläge Wind Luftdruck Luftfeuchtigkeit
    00:00 +21°C° 0.4 mm 4 m/S 699 mmHg 89%
    01:00 +21°C° 0.2 mm 4 m/S 699 mmHg 90%
    02:00 +21°C° 0.2 mm 4 m/S 698 mmHg 90%
    03:00 +21°C° 0.2 mm 3 m/S 698 mmHg 91%
    04:00 +21°C° 0.7 mm 3 m/S 698 mmHg 91%
    05:00 +20°C° 0.7 mm 4 m/S 698 mmHg 91%
    06:00 +20°C° 0.7 mm 4 m/S 698 mmHg 91%
    07:00 +21°C° 0.6 mm 4 m/S 699 mmHg 91%
    08:00 +21°C° 0.6 mm 3 m/S 699 mmHg 90%
    09:00 +21°C° 0.6 mm 3 m/S 700 mmHg 90%
    10:00 +22°C° 1.4 mm 3 m/S 700 mmHg 89%
    11:00 +23°C° 1.4 mm 2 m/S 700 mmHg 88%
    12:00 +23°C° 1.4 mm 2 m/S 700 mmHg 88%
    13:00 +24°C° 0.7 mm 3 m/S 700 mmHg 86%
    14:00 +24°C° 0.7 mm 3 m/S 699 mmHg 84%
    15:00 +25°C° 0.7 mm 3 m/S 699 mmHg 82%
    16:00 +23°C° 0.7 mm 4 m/S 699 mmHg 85%
    17:00 +22°C° 0.7 mm 4 m/S 699 mmHg 87%
    18:00 +22°C° 0.7 mm 4 m/S 698 mmHg 89%
    19:00 +21°C° 1.5 mm 3 m/S 699 mmHg 90%
    20:00 +21°C° 1.5 mm 3 m/S 699 mmHg 92%
    21:00 +21°C° 1.5 mm 2 m/S 700 mmHg 93%
    22:00 +20°C° 0.5 mm 2 m/S 700 mmHg 93%
    23:00 +20°C° 0.5 mm 2 m/S 700 mmHg 92%

    28 Januar, Montag

    Zeit Temperatur Niederschläge Wind Luftdruck Luftfeuchtigkeit
    00:00 +20°C° 0.5 mm 2 m/S 700 mmHg 92%
    01:00 +20°C° 0 mm 2 m/S 700 mmHg 92%
    02:00 +20°C° 0 mm 2 m/S 699 mmHg 92%
    03:00 +20°C° 0 mm 2 m/S 699 mmHg 92%
    04:00 +20°C° 0 mm 2 m/S 699 mmHg 92%
    05:00 +20°C° 0 mm 2 m/S 699 mmHg 91%
    06:00 +20°C° 0 mm 3 m/S 699 mmHg 91%
    07:00 +22°C° 0 mm 3 m/S 700 mmHg 87%
    08:00 +23°C° 0 mm 4 m/S 701 mmHg 83%
    09:00 +25°C° 0 mm 5 m/S 701 mmHg 79%
    10:00 +26°C° 0.3 mm 5 m/S 701 mmHg 75%
    11:00 +28°C° 0.3 mm 4 m/S 701 mmHg 70%
    12:00 +29°C° 0.3 mm 4 m/S 701 mmHg 66%
    13:00 +29°C° 0.4 mm 4 m/S 701 mmHg 64%
    14:00 +30°C° 0.4 mm 3 m/S 700 mmHg 62%
    15:00 +30°C° 0.4 mm 3 m/S 700 mmHg 60%
    16:00 +30°C° 0.1 mm 3 m/S 700 mmHg 63%
    17:00 +29°C° 0.1 mm 2 m/S 699 mmHg 65%
    18:00 +28°C° 0.1 mm 2 m/S 699 mmHg 67%
    19:00 +27°C° 0 mm 2 m/S 700 mmHg 68%
    20:00 +25°C° 0 mm 2 m/S 700 mmHg 68%
    21:00 +24°C° 0 mm 2 m/S 700 mmHg 68%
    22:00 +23°C° 0 mm 2 m/S 700 mmHg 69%
    23:00 +23°C° 0 mm 2 m/S 700 mmHg 71%

    29 Januar, Dienstag

    Zeit Temperatur Niederschläge Wind Luftdruck Luftfeuchtigkeit
    00:00 +23°C° 0 mm 2 m/S 701 mmHg 72%
    01:00 +21°C° 0 mm 2 m/S 700 mmHg 76%
    02:00 +21°C° 0 mm 2 m/S 700 mmHg 79%
    03:00 +21°C° 0 mm 2 m/S 699 mmHg 82%
    04:00 +21°C° 0 mm 2 m/S 699 mmHg 83%
    05:00 +21°C° 0 mm 2 m/S 699 mmHg 84%
    06:00 +21°C° 0 mm 2 m/S 700 mmHg 85%
    07:00 +24°C° 0 mm 3 m/S 700 mmHg 80%
    08:00 +25°C° 0 mm 4 m/S 701 mmHg 75%
    09:00 +27°C° 0 mm 5 m/S 702 mmHg 70%
    10:00 +29°C° 0.1 mm 5 m/S 701 mmHg 66%
    11:00 +30°C° 0.1 mm 5 m/S 701 mmHg 62%
    12:00 +32°C° 0.1 mm 4 m/S 701 mmHg 58%
    13:00 +33°C° 0 mm 4 m/S 701 mmHg 55%
    14:00 +33°C° 0 mm 4 m/S 700 mmHg 52%
    15:00 +34°C° 0 mm 4 m/S 699 mmHg 49%
    16:00 +33°C° 0 mm 3 m/S 699 mmHg 54%
    17:00 +31°C° 0 mm 3 m/S 699 mmHg 59%
    18:00 +30°C° 0 mm 2 m/S 699 mmHg 64%
    19:00 +29°C° 0 mm 2 m/S 699 mmHg 67%
    20:00 +27°C° 0 mm 2 m/S 699 mmHg 71%
    21:00 +25°C° 0 mm 2 m/S 699 mmHg 74%
    22:00 +25°C° 0 mm 2 m/S 699 mmHg 74%
    23:00 +24°C° 0 mm 2 m/S 700 mmHg 74%
    Mehr zeigen